Onweer radar Meer informatie blitzortung!


Regen radar Meer informatie rain snow radar


Bezoek onze andere website:

Template documentation
and downloads

And another site



15 daagse weersverwachting Trondheim (NO)

  • Overzicht
  • Per uur
  • 15 dagen
  • Extra
  • Vergelijk
  • Kaarten
  • Dagkaart
  • Meer »
  • Info
  • Statistieken
  • Directe link
    Temp 6h Neerslag Wind  
 04:37     22:14    Daglengte: 17:37 Morgen
02:00
11°
 
3
08:00
11°
 
3
14:00
13°
 
5
20:00
12°
 
4
 04:40     22:11    Daglengte: 17:31 Maandag 02 Aug
02:00
10°
0.4 mm
3
08:00
10°
 
2
14:00
12°
 
3
20:00
12°
 
3
 04:43     22:08    Daglengte: 17:25 Dinsdag 03 Aug
02:00
 
2
08:00
10°
4.2 mm
2
14:00
14°
 
2
20:00
14°
 
2
Locatie info
Region: Trøndelag
Latitude: 63.4310°N
Longitude: 10.3921°E
18 masl
Postcode: 7011
Temp/Neerslag /Baro Onweer/Dauwpunt
    Temp Baro 1h Neerslag Dauwpunt Wind UV Bewolking  
 04:34     22:18    Daglengte: 17:44 Vandaag
23:00
12°
1000.6 hPa
48%
10.3°
3
Windvlaag: -3.1 m/s
66%
 04:37     22:14    Daglengte: 17:37 Morgen
00:00
12°
1000.9 hPa
29%
10.1°
3
Windvlaag: -2.4 m/s
47%
01:00
12°
1001.2 hPa
59%
9.7°
3
Windvlaag: -3.1 m/s
57%
02:00
11°
1001.6 hPa
25%
9.2°
3
Windvlaag: -4 m/s
61%
03:00
11°
1001.8 hPa
24%
9.0°
3
Windvlaag: -3.9 m/s
75%
04:00
11°
1001.9 hPa
23%
8.7°
3
Windvlaag: -3 m/s
73%
05:00
11°
1002.1 hPa
22%
8.8°
3
Windvlaag: -2.6 m/s
57%
06:00
11°
1002.3 hPa
18%
8.9°
2
Windvlaag: -2.6 m/s
66%
07:00
11°
1002.5 hPa
32%
9.1°
3
Windvlaag: -2.5 m/s
68%
08:00
11°
1002.7 hPa
31%
9.1°
3
Windvlaag: -4 m/s
69%
09:00
11°
1003.0 hPa
27%
9.5°
3
Windvlaag: -4.1 m/s
73%
10:00
12°
1003.3 hPa
60%
9.7°
3
Windvlaag: -2.8 m/s
53%
11:00
12°
1003.4 hPa
33%
9.3°
4
Windvlaag: -2.9 m/s
46%
12:00
13°
1003.5 hPa
66%
7.3°
4
Windvlaag: -3.2 m/s
36%
13:00
13°
1003.7 hPa
30%
7.1°
4
Windvlaag: -3.2 m/s
52%
14:00
13°
1004.0 hPa
19%
8.3°
5
Windvlaag: -4.6 m/s
53%
15:00
13°
1004.3 hPa
56%
8.6°
5
Windvlaag: -3.5 m/s
32%
16:00
13°
1004.4 hPa
56%
8.3°
5
Windvlaag: -3.7 m/s
25%
17:00
13°
1004.5 hPa
19%
8.8°
5
Windvlaag: -3.8 m/s
33%
18:00
13°
1004.6 hPa
17%
9.0°
5
Windvlaag: -4.4 m/s
33%
19:00
12°
1004.9 hPa
19%
9.4°
4
Windvlaag: -3.9 m/s
58%
20:00
12°
1005.2 hPa
25%
9.3°
4
Windvlaag: -3.2 m/s
65%
21:00
11°
1005.8 hPa
58%
9.6°
4
Windvlaag: -3.7 m/s
64%
22:00
11°
1006.1 hPa
24%
9.6°
3
Windvlaag: -3.8 m/s
28%
23:00
10°
1006.3 hPa
31%
9.3°
3
Windvlaag: -1.9 m/s
17%
 04:40     22:11    Daglengte: 17:31 Maandag 02 Aug
00:00
10°
1006.6 hPa
70%
9.1°
3
Windvlaag: -2 m/s
63%
01:00
10°
1006.7 hPa 0.4 mm
72%
9.3°
3
Windvlaag: -2.4 m/s
71%
02:00
10°
1006.9 hPa
74%
9.4°
3
Windvlaag: -3.7 m/s
65%
03:00
10°
Voelt als: 8.7°
1007.1 hPa
75%
9.3°
2
Windvlaag: -3.3 m/s
49%
04:00
10°
Voelt als: 8.6°
1007.2 hPa
72%
9.0°
2
Windvlaag: -3.1 m/s
22%
05:00
Voelt als: 8.0°
1007.5 hPa
26%
8.3°
2
Windvlaag: -3.2 m/s
24%
06:00
Voelt als: 7.8°
1007.7 hPa
26%
8.1°
2
Windvlaag: -2.8 m/s
53%
07:00
10°
Voelt als: 8.4°
1007.9 hPa
25%
8.5°
2
Windvlaag: -2.8 m/s
57%
08:00
10°
Voelt als: 8.8°
1008.2 hPa
55%
8.7°
2
Windvlaag: -3.3 m/s
35%
09:00
10°
1008.5 hPa
59%
8.6°
2
Windvlaag: -3.6 m/s
17%
10:00
11°
1008.6 hPa
66%
8.2°
2
Windvlaag: -3.5 m/s
49%
11:00
11°
1008.6 hPa
64%
8.1°
2
Windvlaag: -3 m/s
48%
12:00
12°
1008.6 hPa
62%
7.6°
3
Windvlaag: -2.4 m/s
58%
13:00
12°
1008.8 hPa
62%
5.8°
3
Windvlaag: -3.4 m/s
56%
14:00
12°
1008.9 hPa
59%
5.8°
3
Windvlaag: -3.5 m/s
56%
15:00
12°
1008.9 hPa
59%
6.0°
3
Windvlaag: -3.5 m/s
46%
16:00
13°
1008.8 hPa
61%
5.6°
3
Windvlaag: -4.2 m/s
36%
17:00
13°
1008.7 hPa
77%
5.7°
4
Windvlaag: -4.2 m/s
61%
18:00
13°
1008.8 hPa
75%
5.4°
4
Windvlaag: -3.9 m/s
68%
19:00
13°
1008.9 hPa
73%
6.1°
3
Windvlaag: -3.4 m/s
42%
20:00
12°
1009.0 hPa
74%
6.1°
3
Windvlaag: -3.8 m/s
43%
21:00
12°
1009.2 hPa
69%
6.8°
3
Windvlaag: -3.7 m/s
48%
22:00
11°
1009.5 hPa
22%
6.6°
3
Windvlaag: -2.7 m/s
28%
23:00
10°
Voelt als: 8.9°
1009.8 hPa
25%
6.9°
2
Windvlaag: -1.9 m/s
10%
 04:43     22:08    Daglengte: 17:25 Dinsdag 03 Aug
00:00
Voelt als: 8.4°
1010.0 hPa
21%
6.7°
2
Windvlaag: -0.9 m/s
29%
01:00
Voelt als: 8.0°
1010.2 hPa
24%
6.5°
2
Windvlaag: -0.5 m/s
27%
02:00
Voelt als: 8.4°
1010.2 hPa
30%
6.7°
2
Windvlaag: 0.6 m/s
41%
03:00
Voelt als: 9.1°
1010.5 hPa 0.7 mm
74%
7.0°
1
Windvlaag: 0.6 m/s
67%
04:00
1010.6 hPa 0.9 mm
73%
7.0°
1
Windvlaag: 0.6 m/s
81%
05:00
Voelt als: 8.3°
1010.6 hPa 0.9 mm
34%
7.6°
2
Windvlaag: 0.7 m/s
81%
06:00
Voelt als: 8.2°
1010.6 hPa 0.9 mm
32%
7.6°
2
Windvlaag: 1.4 m/s
87%
07:00
Voelt als: 8.3°
1010.8 hPa 0.8 mm
32%
7.3°
2
Windvlaag: 2.5 m/s
83%
08:00
10°
Voelt als: 8.9°
1011.0 hPa
27%
7.1°
2
Windvlaag: 3.2 m/s
59%
09:00
11°
1011.1 hPa
26%
6.9°
2
Windvlaag: 3.2 m/s
41%
10:00
12°
1011.2 hPa
25%
6.4°
2
Windvlaag: 3.2 m/s
33%
11:00
12°
1011.1 hPa
24%
6.0°
2
Windvlaag: 3.1 m/s
66%
12:00
13°
1011.1 hPa
69%
5.7°
2
Windvlaag: 2.7 m/s
73%
13:00
13°
1011.1 hPa
78%
5.6°
2
Windvlaag: 0.7 m/s
63%
14:00
14°
1011.0 hPa
80%
6.0°
2
Windvlaag: -3.7 m/s
63%
15:00
14°
1010.9 hPa
80%
6.5°
3
Windvlaag: 2.6 m/s
65%
16:00
14°
1011.0 hPa
80%
7.1°
3
Windvlaag: 2.7 m/s
38%
17:00
14°
1011.1 hPa
85%
7.3°
3
Windvlaag: 2.2 m/s
54%
18:00
14°
1011.1 hPa
80%
7.6°
3
Windvlaag: 2.2 m/s
39%
19:00
14°
1011.2 hPa
29%
7.5°
3
Windvlaag: 2.2 m/s
49%
20:00
14°
1011.4 hPa
67%
7.4°
2
Windvlaag: 2.4 m/s
45%
21:00
13°
1010.1 hPa 2.1 mm
100%
8.3°
2
Windvlaag: 3.2 m/s
28%
22:00
10°
1010.2 hPa 2.1 mm
100%
6.6°
3
Windvlaag: 4.1 m/s
21%
Temp/Neerslag /Baro Onweer/Dauwpunt
    Temp Baro Neerslag Dauwpunt Wind Bewolking  
 04:34     22:18    Daglengte: 17:44 Vandaag
23:00
12°
1000.6 hPa   10.3°
3
66%
 04:37     22:14    Daglengte: 17:37 Morgen
02:00
11°
1001.6 hPa   9.2°
3
61%
05:00
11°
1002.1 hPa   8.8°
3
57%
08:00
11°
1002.7 hPa   9.1°
3
69%
11:00
12°
1003.4 hPa   9.3°
4
46%
14:00
13°
1004.0 hPa   8.3°
5
53%
17:00
13°
1004.5 hPa   8.8°
5
33%
20:00
12°
1005.2 hPa   9.3°
4
65%
23:00
10°
1006.3 hPa   9.3°
3
17%
 04:40     22:11    Daglengte: 17:31 Maandag 02 Aug
02:00
10°
1006.9 hPa 0.4 mm 9.4°
3
65%
05:00
Voelt als: 8.0°
1007.5 hPa   8.3°
2
24%
08:00
10°
Voelt als: 8.8°
1008.2 hPa   8.7°
2
35%
11:00
11°
1008.6 hPa   8.1°
2
48%
14:00
12°
1008.9 hPa   5.8°
3
56%
17:00
13°
1008.7 hPa   5.7°
4
61%
20:00
12°
1009.0 hPa   6.1°
3
43%
23:00
10°
Voelt als: 8.9°
1009.8 hPa   6.9°
2
10%
 04:43     22:08    Daglengte: 17:25 Dinsdag 03 Aug
02:00
Voelt als: 8.4°
1010.2 hPa   6.7°
2
41%
05:00
Voelt als: 8.3°
1010.6 hPa 2.5 mm 7.6°
2
81%
08:00
10°
Voelt als: 8.9°
1011.0 hPa 1.7 mm 7.1°
2
59%
11:00
12°
1011.1 hPa   6.0°
2
66%
14:00
14°
1011.0 hPa   6.0°
2
63%
17:00
14°
1011.1 hPa   7.3°
3
54%
20:00
14°
1011.4 hPa   7.4°
2
45%
23:00
10°
Voelt als: 8.1°
1010.6 hPa 6.3 mm 6.6°
3
29%
 04:46     22:05    Daglengte: 17:19 Woensdag 04 Aug
02:00
Voelt als: 6.8°
1011.4 hPa 6.3 mm 5.6°
2
39%
05:00
Voelt als: 8.9°
1013.8 hPa 2.6 mm 4.6°
1
1%
08:00
11°
1014.3 hPa 2.6 mm 5.6°
1
1%
11:00
13°
1013.9 hPa 2.6 mm 7.0°
0
1%
14:00
14°
1013.3 hPa 2.6 mm 8.1°
1
1%
17:00
16°
1013.0 hPa 2.6 mm 7.6°
2
0%
20:00
15°
1013.1 hPa 2.6 mm 7.4°
2
0%
23:00
11°
1013.7 hPa 2.6 mm 6.2°
0
0%
 04:49     22:02    Daglengte: 17:13 Donderdag 05 Aug
02:00
11°
1013.3 hPa 2.6 mm 5.6°
1
0%
05:00
10°
Voelt als: 9.9°
1012.9 hPa 2.6 mm 5.0°
1
1%
08:00
12°
1012.5 hPa 2.6 mm 6.2°
1
1%
11:00
15°
1011.8 hPa 2.6 mm 8.2°
1
1%
14:00
17°
1010.5 hPa 2.6 mm 9.5°
1
1%
17:00
16°
1010.1 hPa 3.6 mm 12.2°
1
1%
20:00
15°
1010.6 hPa 3.7 mm 11.2°
2
1%
23:00
14°
1010.7 hPa 3.7 mm 9.9°
1
1%
 04:52     21:58    Daglengte: 17:06 Vrijdag 06 Aug
02:00
13°
1010.6 hPa 3.7 mm 9.7°
1
1%
05:00
13°
1010.6 hPa 3.7 mm 9.8°
2
1%
08:00
15°
1010.1 hPa 3.7 mm 10.9°
2
1%
11:00
18°
1009.8 hPa 3.7 mm 11.4°
3
1%
14:00
21°
1008.6 hPa 3.7 mm 10.2°
4
1%
17:00
22°
1008.2 hPa 3.7 mm 9.9°
6
1%
20:00
19°
1008.6 hPa 3.7 mm 10.1°
5
1%
23:00
15°
1009.3 hPa 3.7 mm 9.4°
3
0%
 04:55     21:55    Daglengte: 17:00 Zaterdag 07 Aug
02:00
14°
1009.8 hPa 3.7 mm 8.5°
3
0%
05:00
13°
1010.0 hPa 3.7 mm 8.6°
4
0%
08:00
15°
1009.9 hPa 3.7 mm 9.9°
4
0%
11:00
19°
1009.3 hPa 3.7 mm 9.9°
5
0%
14:00
21°
1008.7 hPa 3.7 mm 9.7°
6
0%
17:00
21°
1008.3 hPa 3.7 mm 9.4°
4
1%
20:00
20°
1008.8 hPa 7.5 mm 10.1°
5
1%
 04:58     21:52    Daglengte: 16:54 Zondag 08 Aug
02:00
15°
1009.7 hPa 7.5 mm 9.6°
3
1%
08:00
16°
1009.6 hPa 7.5 mm 11.6°
4
1%
14:00
20°
1008.1 hPa 7.5 mm 12.3°
4
1%
20:00
19°
1006.0 hPa 7.5 mm 11.8°
4
1%
 05:01     21:49    Daglengte: 16:48 Maandag 09 Aug
02:00
13°
1006.4 hPa 7.5 mm 11.0°
4
0%
08:00
15°
1006.0 hPa 7.5 mm 11.4°
4
1%
14:00
21°
1004.5 hPa 7.5 mm 12.6°
5
1%
20:00
16°
1007.2 hPa 8.2 mm 13.3°
4
1%
 05:04     21:45    Daglengte: 16:41 Dinsdag 10 Aug
02:00
13°
1011.2 hPa 9.0 mm 11.4°
0
1%
08:00
14°
1012.5 hPa 9.0 mm 11.7°
1
0%
14:00
16°
1013.8 hPa 9.0 mm 12.7°
1
1%
20:00
17°
1013.6 hPa 0.9 mm 12.4°
1
69%
 05:07     21:42    Daglengte: 16:35 Woensdag 11 Aug
02:00
12°
1014.6 hPa 0.6 mm 10.9°
1
62%
08:00
14°
1014.5 hPa 0.3 mm 11.6°
1
75%
14:00
19°
1014.1 hPa 0.7 mm 11.6°
0
83%
20:00
16°
1014.7 hPa 0.7 mm 12.1°
1
74%
 05:10     21:39    Daglengte: 16:29 Donderdag 12 Aug
02:00
12°
1016.0 hPa 0.7 mm 10.8°
0
71%
08:00
14°
1016.2 hPa 0.9 mm 11.5°
0
77%
14:00
19°
1016.1 hPa 0.2 mm 12.0°
1
73%
20:00
16°
1016.8 hPa 0.8 mm 11.8°
1
74%
 05:13     21:35    Daglengte: 16:22 Vrijdag 13 Aug
02:00
12°
1017.3 hPa 0.2 mm 10.3°
1
64%
08:00
14°
1016.9 hPa 0.4 mm 11.2°
1
67%
14:00
21°
1015.9 hPa 0.4 mm 11.6°
1
64%
20:00
17°
1015.1 hPa 0.5 mm 12.3°
0
63%
 05:16     21:32    Daglengte: 16:16 Zaterdag 14 Aug
02:00
13°
1015.0 hPa 0.3 mm 11.0°
1
64%
08:00
15°
1014.1 hPa 0.4 mm 11.5°
1
63%
14:00
19°
1013.4 hPa 0.7 mm 12.5°
1
74%
20:00
16°
1013.1 hPa 0.3 mm 12.4°
0
81%
 05:19     21:29    Daglengte: 16:10 Zondag 15 Aug
02:00
12°
1013.0 hPa 1.4 mm 10.8°
1
75%
08:00
14°
1012.3 hPa 1.4 mm 11.3°
1
82%
14:00
19°
1011.6 hPa 0.8 mm 11.6°
1
80%
20:00
16°
1011.2 hPa 0.7 mm 11.9°
1
86%
  CAPE Lifted Index Hail Supercell Tornado SRH 3km CL BTM PRES CL TOP PRES Swiss DWD icon SMHI TS
 04:34     22:18    Daglengte: 17:44 Vandaag
23:00 1 J/kg 6.1 K 0 % 0 % 0 % 0 m²/s² 0 0 7.42 3
 04:37     22:14    Daglengte: 17:37 Morgen
00:00 5 J/kg 7.1 K 0 % 0 % 0 % 0 m²/s² 0 0 8.57 3
01:00 7 J/kg 8.0 K 0 % 0 % 0 % 0 m²/s² 0 0 9.47 3
02:00 19 J/kg 8.5 K 0 % 0 % 0 % 0 m²/s² 0 0 9.88 3
03:00 24 J/kg 8.9 K 0 % 0 % 0 % 0 m²/s² 0 0 10.22 3
04:00 26 J/kg 9.2 K 0 % 0 % 0 % 0 m²/s² 0 0 10.58 3
05:00 27 J/kg 9.3 K 0 % 0 % 0 % 0 m²/s² 0 0 10.95 3
06:00 25 J/kg 9.5 K 0 % 0 % 0 % 0 m²/s² 0 0 11.99 3
07:00 21 J/kg 9.8 K 0 % 0 % 0 % 0 m²/s² 0 0 13.07 3
08:00 18 J/kg 10.0 K 0 % 0 % 0 % 0 m²/s² 0 0 14.05 3
09:00 21 J/kg 9.6 K 0 % 0 % 0 % 0 m²/s² 0 0 12.87 3
10:00 29 J/kg 9.1 K 0 % 0 % 0 % 0 m²/s² 0 0 12.13 3
11:00 28 J/kg 9.1 K 0 % 0 % 0 % 0 m²/s² 0 0 12.64 3
12:00 18 J/kg 8.9 K 0 % 0 % 0 % 0 m²/s² 0 0 11.84 3
13:00 24 J/kg 8.5 K 0 % 0 % 0 % 0 m²/s² 0 0 11.29 3
14:00 25 J/kg 8.3 K 0 % 0 % 0 % 0 m²/s² 0 0 11 3
15:00 25 J/kg 8.2 K 0 % 0 % 0 % 0 m²/s² 0 0 10.69 3
16:00 20 J/kg 8.6 K 0 % 0 % 0 % 0 m²/s² 0 0 11.09 3
17:00 12 J/kg 9.1 K 0 % 0 % 0 % 0 m²/s² 0 0 11.59 3
18:00 8 J/kg 9.1 K 0 % 0 % 0 % 0 m²/s² 0 0 11.59 3
19:00 24 J/kg 8.6 K 0 % 0 % 0 % 0 m²/s² 0 0 11.3 3
20:00 26 J/kg 8.5 K 0 % 0 % 0 % 0 m²/s² 0 0 11.86 3
21:00 34 J/kg 8.6 K 0 % 0 % 0 % 0 m²/s² 0 0 12.92 3
22:00 19 J/kg 9.3 K 0 % 0 % 0 % 0 m²/s² 0 0 14.61 3
23:00 20 J/kg 9.6 K 0 % 0 % 0 % 0 m²/s² 0 0 15.06 3
 04:40     22:11    Daglengte: 17:31 Maandag 02 Aug
00:00 32 J/kg 9.5 K 0 % 0 % 0 % 0 m²/s² 0 0 15.11 3
01:00 51 J/kg 8.9 K 0 % 0 % 0 % 0 m²/s² 0 0 14.21 80
02:00 66 J/kg 8.5 K 0 % 0 % 0 % 0 m²/s² 0 0 13.66 80
03:00 65 J/kg 8.3 K 0 % 0 % 0 % 0 m²/s² 0 0 13.31 80
04:00 49 J/kg 8.7 K 0 % 0 % 0 % 0 m²/s² 0 0 13.71 3
05:00 32 J/kg 9.2 K 0 % 0 % 0 % 0 m²/s² 0 0 14.21 3
06:00 37 J/kg 9.3 K 0 % 0 % 0 % 0 m²/s² 0 0 14.16 3
07:00 48 J/kg 9.3 K 0 % 0 % 0 % 0 m²/s² 0 0 14.19 3
08:00 52 J/kg 9.1 K 0 % 0 % 0 % 0 m²/s² 0 0 13.6 2
09:00 37 J/kg 9.3 K 0 % 0 % 0 % 0 m²/s² 0 0 13.68 2
10:00 27 J/kg 9.4 K 0 % 0 % 0 % 0 m²/s² 0 0 13.66 3
11:00 13 J/kg 9.2 K 0 % 0 % 0 % 0 m²/s² 0 0 13.46 3
12:00 14 J/kg 8.7 K 0 % 0 % 0 % 0 m²/s² 0 0 12.96 3
13:00 7 J/kg 8.2 K 0 % 0 % 0 % 0 m²/s² 0 0 12.46 3
14:00 27 J/kg 7.4 K 0 % 0 % 0 % 0 m²/s² 0 0 11.69 2
15:00 41 J/kg 6.8 K 0 % 0 % 0 % 0 m²/s² 0 0 11.09 3
16:00 38 J/kg 6.5 K 0 % 0 % 0 % 0 m²/s² 0 0 10.55 3
17:00 31 J/kg 6.7 K 0 % 0 % 0 % 0 m²/s² 0 0 10.45 3
18:00 29 J/kg 6.5 K 0 % 0 % 0 % 0 m²/s² 0 0 9.95 3
19:00 30 J/kg 6.1 K 0 % 0 % 0 % 0 m²/s² 0 0 9.46 2
20:00 33 J/kg 6.0 K 0 % 0 % 0 % 0 m²/s² 0 0 9.18 2
21:00 25 J/kg 6.5 K 0 % 0 % 0 % 0 m²/s² 0 0 9.53 2
22:00 0 J/kg 7.2 K 0 % 0 % 0 % 0 m²/s² 0 0 10.05 2
23:00 1 J/kg 7.7 K 0 % 0 % 0 % 0 m²/s² 0 0 10.4 2
 04:43     22:08    Daglengte: 17:25 Dinsdag 03 Aug
00:00 2 J/kg 7.9 K 0 % 0 % 0 % 0 m²/s² 0 0 10.54 2
01:00 21 J/kg 8.0 K 0 % 0 % 0 % 0 m²/s² 0 0 10.55 1
02:00 31 J/kg 8.0 K 0 % 0 % 0 % 0 m²/s² 0 0 10.55 3
03:00 42 J/kg 8.0 K 0 % 0 % 0 % 0 m²/s² 0 0 10.49 3
04:00 31 J/kg 7.9 K 0 % 0 % 0 % 0 m²/s² 0 0 10.33 3
05:00 6 J/kg 8.2 K 0 % 0 % 0 % 0 m²/s² 0 0 10.54 3
06:00 1 J/kg 8.4 K 0 % 0 % 0 % 0 m²/s² 0 0 10.53 3
07:00 1 J/kg 8.5 K 0 % 0 % 0 % 0 m²/s² 0 0 10.57 2
08:00 17 J/kg 8.6 K 0 % 0 % 0 % 0 m²/s² 0 0 10.73 2
09:00 32 J/kg 8.1 K 0 % 0 % 0 % 0 m²/s² 0 0 10.32 3
10:00 29 J/kg 8.0 K 0 % 0 % 0 % 0 m²/s² 0 0 10.22 2
11:00 19 J/kg 8.2 K 0 % 0 % 0 % 0 m²/s² 0 0 10.48 2
12:00 10 J/kg 7.8 K 0 % 0 % 0 % 0 m²/s² 0 0 9.93 3
13:00 6 J/kg 7.4 K 0 % 0 % 0 % 0 m²/s² 0 0 9.74 3
14:00 7 J/kg 6.7 K 0 % 0 % 0 % 0 m²/s² 0 0 9.28 3
15:00 8 J/kg 6.2 K 0 % 0 % 0 % 0 m²/s² 0 0 8.99 3
16:00 14 J/kg 5.5 K 0 % 0 % 0 % 0 m²/s² 0 0 8.29 3
17:00 18 J/kg 5.4 K 0 % 0 % 0 % 0 m²/s² 0 0 8.22 3
18:00 10 J/kg 5.3 K 0 % 0 % 0 % 0 m²/s² 0 0 8.03 3
19:00 2 J/kg 5.5 K 0 % 0 % 0 % 0 m²/s² 0 0 8.17 2
20:00 0 J/kg 5.6 K 0 % 0 % 0 % 0 m²/s² 0 0 8.27 3
21:00 0 J/kg 5.9 K 0 % 0 % 0 % 0 m²/s² 0 0 8.57
22:00 0 J/kg 6.2 K 0 % 0 % 0 % 0 m²/s² 0 0 9.02
Temp Baro Wind Neerslag
  EWN Forecast EWN WRFDA DWD ICON FMI HIRLAM MET Norway GFS
 04:34     22:18    Daglengte: 17:44 Vandaag
23:00 12.2° 1000.6 hPa 2.9 m/s 0.0 mm 11.6° 999.6 hPa 4.7 m/s 0.1 mm 12.5° 1000.6 hPa 2.6 m/s -2.0 mm 10.8° 1001.0 hPa 2.0 m/s 0.0 mm 11.8° 1000.7 hPa 2.6 m/s
 04:37     22:14    Daglengte: 17:37 Morgen
02:00 11.3° 1001.6 hPa 3.2 m/s 0.0 mm 10.3° 1000.8 hPa 4.0 m/s 0.4 mm 11.8° 1001.2 hPa 3.1 m/s 0.0 mm 10.4° 1002.0 hPa 2.1 m/s 0.0 mm 10.5° 1001.7 hPa 2.8 m/s
05:00 10.8° 1002.1 hPa 2.5 m/s 0.0 mm 9.9° 1001.1 hPa 3.2 m/s 1.0 mm 11.3° 1002.1 hPa 2.6 m/s 0.0 mm 9.3° 1002.3 hPa 1.4 m/s 0.0 mm 10.4° 1002.2 hPa 2.0 m/s
08:00 10.9° 1002.7 hPa 3.0 m/s 0.0 mm 10.4° 1001.5 hPa 2.8 m/s 2.4 mm 11.8° 1002.4 hPa 3.3 m/s 0.0 mm 9.3° 1002.9 hPa 1.2 m/s 0.0 mm 11.4° 1002.7 hPa 2.3 m/s
11:00 12.3° 1003.4 hPa 3.7 m/s 0.0 mm 11.7° 1002.3 hPa 3.2 m/s 2.8 mm 12.8° 1003.3 hPa 4.6 m/s 0.0 mm 10.5° 1003.7 hPa 1.6 m/s 0.0 mm 12.1° 1003.6 hPa 3.2 m/s
14:00 13.0° 1004.0 hPa 4.6 m/s 0.0 mm 13.3° 1002.7 hPa 4.9 m/s 2.9 mm 13.5° 1004.1 hPa 4.9 m/s 0.0 mm 11.7° 1004.5 hPa 2.8 m/s 0.0 mm 13.2° 1003.9 hPa 4.6 m/s
17:00 13.0° 1004.5 hPa 4.8 m/s 0.0 mm 13.3° 1003.3 hPa 5.9 m/s 2.9 mm 13.2° 1004.6 hPa 5.0 m/s 0.0 mm 11.3° 1005.0 hPa 2.5 m/s 0.0 mm 13.2° 1004.7 hPa 5.1 m/s
20:00 11.9° 1005.2 hPa 4.1 m/s 0.0 mm 11.9° 1003.9 hPa 5.4 m/s 3.0 mm 12.6° 1005.1 hPa 4.5 m/s 0.0 mm 10.1° 1006.0 hPa 1.6 m/s 0.0 mm 11.8° 1005.7 hPa 4.6 m/s
23:00 10.4° 1006.3 hPa 3.3 m/s 0.0 mm 8.8° 1004.7 hPa 3.4 m/s 3.0 mm 10.9° 1006.1 hPa 3.5 m/s 0.0 mm 9.2° 1007.0 hPa 1.4 m/s 0.0 mm 9.6° 1006.7 hPa 3.1 m/s
 04:40     22:11    Daglengte: 17:31 Maandag 02 Aug
02:00 10.0° 1006.9 hPa 2.8 m/s 0.4 mm 9.7° 1004.6 hPa 2.7 m/s 3.1 mm 10.5° 1006.8 hPa 3.0 m/s 0.5 mm 8.7° 1007.6 hPa 1.3 m/s 0.0 mm 9.0° 1006.9 hPa 1.8 m/s
05:00 9.2° 1007.5 hPa 2.2 m/s 0.0 mm 9.1° 1005.5 hPa 2.2 m/s 4.0 mm 10.3° 1007.5 hPa 2.3 m/s 0.3 mm 8.2° 1008.0 hPa 1.0 m/s 0.0 mm 9.5° 1007.6 hPa 1.2 m/s
08:00 10.0° 1008.2 hPa 2.4 m/s 0.0 mm 9.6° 1006.2 hPa 1.9 m/s 4.8 mm 10.5° 1008.3 hPa 2.7 m/s 0.0 mm 8.4° 1008.9 hPa 0.8 m/s 0.0 mm 10.4° 1008.1 hPa 0.8 m/s
11:00 11.5° 1008.6 hPa 1.9 m/s 0.0 mm 11.4° 1006.1 hPa 0.8 m/s 4.9 mm 11.6° 1008.8 hPa 3.1 m/s 0.2 mm 10.2° 1009.3 hPa 1.2 m/s 0.0 mm 11.9° 1008.1 hPa 2.3 m/s
14:00 11.9° 1008.9 hPa 2.9 m/s 0.0 mm 11.7° 1006.1 hPa 2.6 m/s 5.1 mm 12.8° 1008.8 hPa 3.7 m/s 0.2 mm 11.8° 1009.6 hPa 1.7 m/s 0.0 mm 13.1° 1008.1 hPa 3.5 m/s
17:00 13.5° 1008.7 hPa 3.5 m/s 0.0 mm 13.6° 1006.0 hPa 2.9 m/s 5.4 mm 13.6° 1009.1 hPa 3.5 m/s 0.2 mm 13.4° 1008.5 hPa 4.4 m/s
20:00 12.5° 1009.0 hPa 3.1 m/s 0.0 mm 12.6° 1006.8 hPa 2.2 m/s 5.4 mm 12.6° 1009.2 hPa 3.0 m/s 0.0 mm 12.1° 1009.4 hPa 3.8 m/s
23:00 10.0° 1009.8 hPa 2.3 m/s 0.0 mm 9.0° 1007.2 hPa 3.9 m/s 5.4 mm 11.0° 1010.0 hPa 1.7 m/s 0.0 mm 8.6° 1010.3 hPa 2.2 m/s
 04:43     22:08    Daglengte: 17:25 Dinsdag 03 Aug
02:00 9.1° 1010.2 hPa 1.7 m/s 0.0 mm 9.0° 1007.9 hPa 2.0 m/s 5.4 mm 9.9° 1010.4 hPa 1.9 m/s 0.0 mm 7.7° 1011.2 hPa 0.4 m/s
05:00 8.9° 1010.6 hPa 1.6 m/s 2.5 mm 7.7° 1008.3 hPa 1.7 m/s 5.7 mm 9.1° 1010.8 hPa 1.7 m/s 0.1 mm 7.2° 1011.6 hPa 1.5 m/s
08:00 9.7° 1011.0 hPa 1.9 m/s 1.7 mm 9.5° 1008.8 hPa 1.8 m/s 6.2 mm 10.6° 1011.1 hPa 1.5 m/s 0.0 mm 9.5° 1011.7 hPa 1.7 m/s
11:00 12.4° 1011.1 hPa 1.8 m/s 0.0 mm 12.2° 1009.0 hPa 1.8 m/s 6.3 mm 13.2° 1011.2 hPa 2.1 m/s 0.0 mm 11.6° 1011.7 hPa 0.7 m/s
14:00 13.8° 1011.0 hPa 2.3 m/s 0.0 mm 13.7° 1009.0 hPa 2.1 m/s 6.3 mm 13.7° 1011.2 hPa 3.3 m/s 0.1 mm 12.4° 1011.7 hPa 1.5 m/s
17:00 14.2° 1011.1 hPa 3.0 m/s 0.0 mm 14.0° 1009.2 hPa 2.0 m/s 6.3 mm 14.2° 1011.6 hPa 3.3 m/s 0.2 mm 13.9° 1011.8 hPa 1.5 m/s
20:00 13.8° 1011.4 hPa 2.1 m/s 0.0 mm 13.7° 1009.7 hPa 1.5 m/s 6.3 mm 13.9° 1011.8 hPa 2.3 m/s 0.1 mm 13.4° 1012.3 hPa 2.4 m/s
23:00 9.8° 1010.6 hPa 3.4 m/s 6.3 mm 9.8° 1010.6 hPa 3.4 m/s 6.3 mm 10.0° 1013.2 hPa 1.3 m/s
 04:46     22:05    Daglengte: 17:19 Woensdag 04 Aug
02:00 7.9° 1011.4 hPa 2.0 m/s 6.3 mm 7.9° 1011.4 hPa 2.0 m/s 6.3 mm 9.6° 1013.7 hPa 0.5 m/s
05:00 8.9° 1013.8 hPa 1.0 m/s 2.6 mm 8.9° 1013.8 hPa 1.0 m/s 2.6 mm
08:00 10.8° 1014.3 hPa 0.8 m/s 2.6 mm 10.8° 1014.3 hPa 0.8 m/s 2.6 mm
11:00 12.6° 1013.9 hPa 0.3 m/s 2.6 mm 12.6° 1013.9 hPa 0.3 m/s 2.6 mm
14:00 14.3° 1013.3 hPa 0.5 m/s 2.6 mm 14.3° 1013.3 hPa 0.5 m/s 2.6 mm
17:00 16.0° 1013.0 hPa 2.3 m/s 2.6 mm 16.0° 1013.0 hPa 2.3 m/s 2.6 mm
20:00 14.7° 1013.1 hPa 1.8 m/s 2.6 mm 14.7° 1013.1 hPa 1.8 m/s 2.6 mm
23:00 11.2° 1013.7 hPa 0.5 m/s 2.6 mm 11.2° 1013.7 hPa 0.5 m/s 2.6 mm
 04:49     22:02    Daglengte: 17:13 Donderdag 05 Aug
02:00 10.6° 1013.3 hPa 0.7 m/s 2.6 mm 10.6° 1013.3 hPa 0.7 m/s 2.6 mm
05:00 9.9° 1012.9 hPa 0.9 m/s 2.6 mm 9.9° 1012.9 hPa 0.9 m/s 2.6 mm
08:00 12.1° 1012.5 hPa 1.1 m/s 2.6 mm 12.1° 1012.5 hPa 1.1 m/s 2.6 mm
11:00 14.9° 1011.8 hPa 1.0 m/s 2.6 mm 14.9° 1011.8 hPa 1.0 m/s 2.6 mm
14:00 16.7° 1010.5 hPa 1.2 m/s 2.6 mm 16.7° 1010.5 hPa 1.2 m/s 2.6 mm
17:00 15.8° 1010.1 hPa 1.5 m/s 3.6 mm 15.8° 1010.1 hPa 1.5 m/s 3.6 mm
20:00 15.4° 1010.6 hPa 1.9 m/s 3.7 mm 15.4° 1010.6 hPa 1.9 m/s 3.7 mm
23:00 13.8° 1010.7 hPa 0.7 m/s 3.7 mm 13.8° 1010.7 hPa 0.7 m/s 3.7 mm
 04:52     21:58    Daglengte: 17:06 Vrijdag 06 Aug
02:00 13.2° 1010.6 hPa 1.3 m/s 3.7 mm 13.2° 1010.6 hPa 1.3 m/s 3.7 mm
05:00 12.8° 1010.6 hPa 1.9 m/s 3.7 mm 12.8° 1010.6 hPa 1.9 m/s 3.7 mm
08:00 14.5° 1010.1 hPa 2.5 m/s 3.7 mm 14.5° 1010.1 hPa 2.5 m/s 3.7 mm
11:00 18.3° 1009.8 hPa 3.1 m/s 3.7 mm 18.3° 1009.8 hPa 3.1 m/s 3.7 mm
14:00 21.0° 1008.6 hPa 4.0 m/s 3.7 mm 21.0° 1008.6 hPa 4.0 m/s 3.7 mm
17:00 21.7° 1008.2 hPa 6.2 m/s 3.7 mm 21.7° 1008.2 hPa 6.2 m/s 3.7 mm
20:00 19.3° 1008.6 hPa 4.7 m/s 3.7 mm 19.3° 1008.6 hPa 4.7 m/s 3.7 mm
23:00 15.4° 1009.3 hPa 3.1 m/s 3.7 mm 15.4° 1009.3 hPa 3.1 m/s 3.7 mm
 04:55     21:55    Daglengte: 17:00 Zaterdag 07 Aug
02:00 13.8° 1009.8 hPa 2.8 m/s 3.7 mm 13.8° 1009.8 hPa 2.8 m/s 3.7 mm
05:00 13.3° 1010.0 hPa 3.7 m/s 3.7 mm 13.3° 1010.0 hPa 3.7 m/s 3.7 mm
08:00 15.4° 1009.9 hPa 4.0 m/s 3.7 mm 15.4° 1009.9 hPa 4.0 m/s 3.7 mm
11:00 19.1° 1009.3 hPa 5.0 m/s 3.7 mm 19.1° 1009.3 hPa 5.0 m/s 3.7 mm
14:00 21.1° 1008.7 hPa 6.2 m/s 3.7 mm 21.1° 1008.7 hPa 6.2 m/s 3.7 mm
17:00 21.2° 1008.3 hPa 4.2 m/s 3.7 mm 21.2° 1008.3 hPa 4.2 m/s 3.7 mm
20:00 19.6° 1008.8 hPa 5.4 m/s 3.7 mm 19.6° 1008.8 hPa 5.4 m/s 3.7 mm
 04:58     21:52    Daglengte: 16:54 Zondag 08 Aug
02:00 14.5° 1009.7 hPa 3.5 m/s 3.7 mm 14.5° 1009.7 hPa 3.5 m/s 3.7 mm
08:00 15.8° 1009.6 hPa 3.8 m/s 3.7 mm 15.8° 1009.6 hPa 3.8 m/s 3.7 mm
14:00 19.7° 1008.1 hPa 3.8 m/s 3.7 mm 19.7° 1008.1 hPa 3.8 m/s 3.7 mm
20:00 19.4° 1006.0 hPa 4.0 m/s 3.7 mm 19.4° 1006.0 hPa 4.0 m/s 3.7 mm
 05:01     21:49    Daglengte: 16:48 Maandag 09 Aug
02:00 13.3° 1006.4 hPa 4.2 m/s 3.7 mm 13.3° 1006.4 hPa 4.2 m/s 3.7 mm
08:00 15.0° 1006.0 hPa 3.7 m/s 3.7 mm 15.0° 1006.0 hPa 3.7 m/s 3.7 mm
14:00 20.8° 1004.5 hPa 5.1 m/s 3.7 mm 20.8° 1004.5 hPa 5.1 m/s 3.7 mm
20:00 15.9° 1007.2 hPa 3.8 m/s 4.4 mm 15.9° 1007.2 hPa 3.8 m/s 4.4 mm
 05:04     21:45    Daglengte: 16:41 Dinsdag 10 Aug
02:00 13.1° 1011.2 hPa 0.4 m/s 4.5 mm 13.1° 1011.2 hPa 0.4 m/s 4.5 mm
08:00 14.2° 1012.5 hPa 1.0 m/s 4.5 mm 14.2° 1012.5 hPa 1.0 m/s 4.5 mm
14:00 16.5° 1013.8 hPa 1.1 m/s 4.6 mm 16.5° 1013.8 hPa 1.1 m/s 4.6 mm
20:00 17.0° 1013.6 hPa 0.9 m/s 0.9 mm
 05:07     21:42    Daglengte: 16:35 Woensdag 11 Aug
02:00 12.3° 1014.6 hPa 0.5 m/s 0.6 mm
08:00 14.3° 1014.5 hPa 0.6 m/s 0.3 mm
14:00 19.2° 1014.1 hPa 0.4 m/s 0.7 mm
20:00 16.4° 1014.7 hPa 1.1 m/s 0.7 mm
 05:10     21:39    Daglengte: 16:29 Donderdag 12 Aug
02:00 12.0° 1016.0 hPa 0.5 m/s 0.7 mm
08:00 13.8° 1016.2 hPa 0.3 m/s 0.9 mm
14:00 18.6° 1016.1 hPa 0.6 m/s 0.2 mm
20:00 16.4° 1016.8 hPa 0.7 m/s 0.8 mm
 05:13     21:35    Daglengte: 16:22 Vrijdag 13 Aug
02:00 11.7° 1017.3 hPa 0.7 m/s 0.2 mm
08:00 14.2° 1016.9 hPa 0.7 m/s 0.4 mm
14:00 20.6° 1015.9 hPa 0.7 m/s 0.4 mm
20:00 17.3° 1015.1 hPa 0.3 m/s 0.5 mm
 05:16     21:32    Daglengte: 16:16 Zaterdag 14 Aug
02:00 12.7° 1015.0 hPa 0.8 m/s 0.3 mm
08:00 14.6° 1014.1 hPa 0.9 m/s 0.4 mm
14:00 19.4° 1013.4 hPa 0.7 m/s 0.7 mm
20:00 16.2° 1013.1 hPa 0.4 m/s 0.3 mm
 05:19     21:29    Daglengte: 16:10 Zondag 15 Aug
02:00 12.3° 1013.0 hPa 0.8 m/s 1.4 mm
08:00 13.7° 1012.3 hPa 0.5 m/s 1.4 mm
14:00 19.0° 1011.6 hPa 0.9 m/s 0.8 mm
20:00 15.9° 1011.2 hPa 0.9 m/s 0.7 mm
FMI Hirlam - 7.5 km EWN WRFDA - 12 km DWD ICON - 7 km GFS - 25 km Basiskaart






























































Updatetijd (Europe/Amsterdam) Resolutie Lengte Stap
FMI Hirlam 19:00, 01:00, 07:00, 13:00 7.5 km 49h 1h
EWN WRFDA 22:15, 04:15, 10:15, 16:15 12 km 73h 1h
DWD ICON 18:15, 00:15, 06:15, 12:15 7 km 75h 1h
GFS 20:15, 02:15, 08:15, 14:15 25 km 237h 3h
30+ mm
25-30 mm
20-25 mm
15-20 mm
10-15 mm
6-10 mm
4-6 mm
2-4 mm
1-2 mm
0.5-1 mm
0.2-0.5 mm
0.1-0.2 mm
30+ mm
25-30 mm
20-25 mm
15-20 mm
10-15 mm
6-10 mm
4-6 mm
2-4 mm
1-2 mm
0.5-1 mm
0.2-0.5 mm
0.1-0.2 mm
Sneeuwval
Natte sneeuw
Hagel
Vorst
30+ mm
25-30 mm
20-25 mm
15-20 mm
10-15 mm
6-10 mm
4-6 mm
2-4 mm
1-2 mm
0.5-1 mm
0.2-0.5 mm
0.1-0.2 mm
Sneeuwval
Natte sneeuw
Hagel
Vorst
Onweer
50 mm
40 mm
30 mm
26 mm
22 mm
18 mm
14 mm
10 mm
9 mm
8 mm
7 mm
6 mm
5 mm
4.5 mm
4 mm
3.5 mm
3 mm
2.5 mm
2 mm
1.5 mm
1 mm
0.8 mm
0.6 mm
0.4 mm
0.2 mm
0.05 mm
35°
30°
25°
20°
15°
10°
-5°
-10°
-15°
-20°
-25°
-30°
-35°
33> m/s
29 m/s
25 m/s
21 m/s
17 m/s
14 m/s
11 m/s
8 m/s
5 m/s
3 m/s
0 m/s
2600 J/kg
2400 J/kg
2200 J/kg
2000 J/kg
1800 J/kg
1600 J/kg
1400 J/kg
1200 J/kg
1000 J/kg
800 J/kg
600 J/kg
400 J/kg
200 J/kg
70 dBZ
65 dBZ
60 dBZ
55 dBZ
50 dBZ
45 dBZ
40 dBZ
35 dBZ
30 dBZ
25 dBZ
20 dBZ
15 dBZ
10 dBZ
5 dBZ
-1 K
-2 K
-3 K
-4 K
-5 K
-6 K
-7 K
-8 K
-9 K
950 m²/s²
900 m²/s²
850 m²/s²
800 m²/s²
750 m²/s²
700 m²/s²
650 m²/s²
600 m²/s²
550 m²/s²
500 m²/s²
450 m²/s²
400 m²/s²
350 m²/s²
300 m²/s²
250 m²/s²
200 m²/s²
150 m²/s²
100 m²/s²
46 m/s
44 m/s
42 m/s
40 m/s
38 m/s
36 m/s
34 m/s
32 m/s
30 m/s
28 m/s
26 m/s
24 m/s
22 m/s
20 m/s
16 m/s
12 m/s
8 m/s
4 m/s
30 m/s
28 m/s
26 m/s
24 m/s
22 m/s
20 m/s
18 m/s
16 m/s
14 m/s
12 m/s
10 m/s
8 m/s
6 m/s
4 m/s
2 m/s
3.0
2.8
2.6
2.4
2.2
2.0
1.8
1.6
1.4
1.2
1.0
0.8
0.6
0.4
0.2
15
14
13
12
11
10
9
8
7
6
5
4
3
2
1
90%
80%
70%
60%
50%
40%
30%
20%
10%
42
40
38
36
34
32
30
28
26
24
22
20
18
16
14
12
90+ cm
80-90 cm
70-80 cm
60-70 cm
50-60 cm
40-50 cm
30-40 cm
20-30 cm
10-20 cm
1-10 cm
Sneeuwval
Natte sneeuw
Regen
>120 mm
115 mm
110 mm
105 mm
100 mm
95 mm
90 mm
85 mm
80 mm
75 mm
70 mm
65 mm
60 mm
55 mm
50 mm
45 mm
45 mm
40 mm
35 mm
30 mm
25 mm
20 mm
15 mm
10 mm
5 mm
0.1 mm
960 hPa
880 hPa
800 hPa
720 hPa
640 hPa
560 hPa
584 gpdm
568 gpdm
552 gpdm
536 gpdm
520 gpdm
504 gpdm
488 gpdm
Extreem zwaar Noodweer Kans op onweer
15% 15% 5% 50% 15%

Dag




Kaart






</
35°
30°
25°
20°
15°
10°
-5°